Wind_Speed
15 15 15 15 16 16 16 16 17 17 17 17 18 18 19 19 19 18 18 18 17 16 15 14 13 13 13 13 13 14 15 15 16 16 16 16 15 15 15 15 15 16 16
15 16 15 16 16 16 16 16 16 16 16 16 17 17 18 18 18 19 19 19 19 19 18 17 16 16 16 15 15 16 16 17 17 18 17 17 17 17 17 17 17 17 16
17 17 16 17 17 17 17 17 17 17 16 17 17 17 17 17 17 18 19 19 19 19 19 19 18 17 17 17 17 17 17 18 19 19 19 18 18 18 18 18 18 18 18
18 17 17 17 17 17 17 17 17 17 16 16 16 16 16 17 17 17 18 18 18 18 18 18 18 17 17 17 17 18 18 19 19 20 20 19 19 19 19 19 19 19 19
18 17 17 18 17 17 16 16 16 16 16 16 16 16 16 17 17 17 18 17 17 17 17 18 18 18 17 17 18 18 19 19 20 20 20 20 20 20 20 20 20 20 20
18 18 18 18 18 17 16 16 17 17 17 18 18 18 17 18 18 18 18 18 18 18 18 18 18 18 18 18 18 19 19 20 20 21 21 21 21 21 21 21 21 20 21
20 19 19 20 19 19 18 18 18 19 19 19 20 19 19 19 19 18 18 18 18 18 19 19 19 19 19 19 19 19 20 20 21 21 22 22 22 22 22 22 22 23 23
22 22 22 22 22 21 21 20 20 20 21 21 21 20 20 19 19 19 19 19 18 18 19 19 19 19 19 20 20 20 21 21 21 22 22 23 23 24 24 25 25 26 26
25 25 25 25 25 24 23 23 22 22 22 22 21 21 21 20 20 20 20 19 19 19 19 19 19 19 20 20 21 21 22 22 22 22 23 24 25 26 27 28 28 29 29
27 28 28 28 27 26 25 25 24 24 23 23 23 22 22 21 21 21 21 20 20 20 20 20 20 20 21 21 21 22 22 22 23 24 24 25 26 27 28 29 30 31 31
29 30 29 29 29 29 28 27 26 26 25 25 24 23 23 22 22 22 21 21 21 21 21 21 21 21 22 22 22 22 23 23 23 24 25 26 27 28 28 29 30 30 31
30 30 30 30 30 30 30 29 28 27 27 26 26 25 24 24 23 23 22 22 22 22 22 22 22 22 23 23 23 23 23 24 24 25 25 25 26 27 28 28 29 30 30
30 29 29 30 30 30 31 30 30 29 28 28 28 27 26 25 24 24 23 23 23 23 23 23 23 24 24 24 23 24 24 24 25 25 25 26 27 28 28 29 30 30 30
29 29 29 29 30 31 31 31 31 30 30 29 29 29 28 27 26 25 25 24 24 24 24 24 25 25 25 25 25 25 25 25 25 25 25 26 27 28 29 29 30 30 29
28 29 29 30 31 32 32 33 32 32 32 32 31 30 29 29 28 27 26 26 26 25 25 25 26 26 26 26 25 25 25 25 25 26 26 26 27 28 28 28 29 29 29
30 30 31 31 31 32 33 34 34 34 34 34 33 33 32 31 30 29 28 27 27 27 27 27 27 27 27 27 27 26 26 26 26 26 26 27 27 27 27 28 28 29 28
32 33 33 33 33 33 33 34 35 35 36 36 35 35 34 33 32 32 31 30 30 30 29 29 29 29 28 28 27 27 26 27 27 26 27 27 27 27 27 28 28 27 27
34 35 35 35 35 35 35 36 37 37 38 37 37 37 36 36 35 35 34 33 33 32 32 31 31 31 30 29 29 28 28 28 27 27 27 27 27 27 27 28 28 27 27
36 36 36 37 37 37 38 39 40 40 40 40 40 39 39 39 39 39 38 38 37 36 35 35 34 33 33 32 31 31 30 29 29 28 28 28 28 28 28 28 28 28 28
36 37 37 38 38 39 40 41 42 43 43 43 43 43 43 43 42 42 42 41 40 39 39 38 38 37 35 34 34 33 33 32 31 30 30 30 30 30 30 30 30 30 31
38 38 38 39 39 41 42 42 44 45 46 46 46 47 47 46 46 45 44 44 43 43 43 42 41 40 38 38 37 36 36 34 33 33 32 32 32 32 33 33 33 33 33
40 40 41 41 41 42 43 44 45 47 48 49 49 50 49 49 49 49 48 47 47 47 46 46 45 43 42 41 40 39 38 37 36 36 35 34 35 35 35 36 36 37 37
41 42 42 43 43 44 44 45 46 48 49 50 51 51 51 52 52 52 51 51 51 50 49 49 48 47 46 45 43 42 41 40 39 38 37 37 37 38 39 39 40 40 41
43 43 43 43 43 44 45 45 46 47 49 49 51 52 53 54 55 55 54 54 54 53 52 51 51 50 49 48 47 46 45 43 42 41 40 40 41 41 42 42 43 44 44
43 42 42 42 43 43 44 45 46 47 48 49 51 52 54 55 56 57 57 57 57 55 55 54 53 53 52 51 50 49 48 46 45 44 43 43 43 44 44 45 46 46 47
41 41 41 41 42 42 43 44 46 47 48 50 51 53 54 55 57 58 59 60 60 59 58 57 56 56 55 54 53 52 51 49 47 47 46 45 46 46 47 47 48 49 49
Wind_Direction
255 258 259 260 260 260 260 260 261 263 266 268 269 270 270 270 271 272 273 274 274 275 276 277 278 278 277 276 276 277 277 276 277 278 279 280 281 283 284 284 285 286 287
252 254 256 258 259 261 261 261 261 262 263 266 268 269 270 271 271 272 273 273 274 274 276 277 278 278 278 278 278 280 281 281 281 281 282 282 284 285 286 286 287 287 289
251 254 257 259 261 263 265 267 267 266 266 268 270 271 272 274 275 275 275 275 275 276 277 277 278 279 279 280 280 281 282 283 283 284 284 285 285 286 287 288 289 290 292
254 257 260 262 263 265 268 271 272 271 272 273 274 276 277 278 279 280 279 278 278 279 279 279 279 280 280 280 280 281 282 282 283 285 286 286 287 287 288 289 290 291 293
254 258 261 264 264 266 269 271 273 276 277 279 280 282 283 283 283 284 284 283 284 285 285 284 283 282 281 281 282 283 283 284 285 286 286 287 287 287 288 288 289 290 293
252 257 261 265 266 267 269 272 275 278 281 283 285 287 288 287 287 287 287 287 287 287 288 288 287 286 285 284 284 284 285 285 285 285 285 285 285 285 286 286 287 289 292
251 256 261 264 267 269 271 274 276 278 282 284 287 288 289 289 289 288 288 287 287 287 287 287 288 288 287 286 286 286 285 285 284 284 284 284 283 282 283 284 285 288 291
251 255 259 263 266 269 271 274 275 277 280 283 285 287 287 288 288 288 287 286 286 287 288 288 288 288 288 288 288 288 288 287 286 286 286 285 283 282 282 283 284 286 289
249 253 257 260 264 266 269 272 273 275 277 280 281 282 283 284 286 286 287 286 286 287 287 288 288 288 288 288 289 289 289 288 287 286 286 285 284 283 282 282 283 285 287
249 252 255 258 262 264 266 269 270 272 274 277 278 279 279 280 282 284 285 286 286 286 286 286 287 287 287 287 287 287 287 288 288 287 286 286 285 284 284 284 285 285 286
248 251 254 256 259 262 264 266 268 270 272 274 276 277 277 278 279 281 284 284 285 285 285 285 285 285 285 285 285 285 285 286 287 287 287 287 287 287 287 288 288 289 289
248 251 254 256 258 260 263 265 267 269 270 271 273 275 275 276 278 279 281 282 282 282 283 284 284 284 284 284 284 283 284 285 286 287 288 289 290 291 292 292 292 292 292
249 252 254 257 258 260 262 264 266 267 268 270 271 272 274 275 276 278 279 280 280 281 282 282 282 282 283 283 283 284 285 286 287 287 288 289 291 292 293 293 293 293 293
250 252 254 257 259 260 261 263 264 265 266 267 269 270 273 275 276 276 278 278 279 279 280 279 279 281 281 282 283 285 286 287 288 288 289 290 292 294 294 294 294 294 293
250 252 254 256 259 260 262 262 263 263 264 266 268 269 271 273 275 276 276 277 278 278 278 278 278 278 280 281 283 285 286 286 287 288 290 291 293 295 295 296 296 295 294
249 252 254 257 259 262 263 264 264 264 264 265 267 268 269 271 273 274 275 275 276 277 277 277 277 277 278 279 281 282 283 284 285 287 290 292 293 295 297 298 298 298 296
249 252 255 257 260 262 264 265 266 266 266 267 267 268 269 269 271 272 273 274 274 274 275 276 276 277 277 277 279 280 281 282 283 285 288 291 293 295 297 299 300 300 298
249 253 256 258 261 263 264 265 265 266 267 267 268 269 270 270 271 271 271 271 271 272 273 274 275 275 275 276 277 278 279 279 281 284 287 290 292 294 297 299 300 299 298
250 254 257 260 262 264 265 266 266 267 268 268 269 269 270 270 270 270 269 270 270 271 272 273 273 273 274 275 275 276 277 278 280 282 284 287 289 292 295 297 298 297 296
252 255 258 261 263 265 266 267 268 268 269 269 269 269 268 268 268 268 268 269 270 270 271 271 271 272 273 274 274 275 277 278 279 281 282 284 286 289 292 293 294 294 293
255 257 260 262 264 265 266 267 268 268 268 268 269 268 268 267 267 267 267 267 268 268 269 269 269 270 271 271 273 274 276 277 279 280 281 282 284 285 288 290 291 291 290
259 261 263 265 266 266 267 267 267 267 267 268 269 270 270 269 269 268 267 266 266 266 266 267 268 268 269 270 271 273 275 276 277 278 280 281 282 283 285 287 288 288 288
264 266 267 268 268 268 268 268 268 268 269 269 270 269 269 268 267 267 265 264 264 264 265 265 266 267 268 269 270 272 273 274 275 277 279 279 280 282 284 285 286 286 286
267 269 270 270 270 270 270 270 270 269 269 269 268 268 267 267 267 267 266 265 264 264 264 264 264 265 267 268 269 270 271 272 273 275 276 278 279 281 283 284 285 285 284
269 270 271 272 272 272 272 272 271 271 270 269 268 267 266 266 266 266 265 264 264 263 262 261 262 263 265 266 267 268 270 271 272 273 275 277 278 280 282 284 285 285 284
268 270 272 273 273 274 274 274 273 272 271 270 269 268 266 265 264 264 263 263 262 261 260 260 259 260 262 263 265 267 269 270 271 273 274 275 277 279 282 284 284 285 284
Height
5885 5886 5886 5887 5887 5888 5888 5889 5889 5889 5889 5889 5888 5888 5888 5887 5887 5886 5886 5885 5884 5884 5883 5883 5882 5882 5881 5881 5880 5880 5880 5879 5879 5878 5877 5877 5876 5876 5875 5874 5873 5873 5872
5883 5884 5884 5885 5885 5886 5886 5887 5887 5887 5887 5887 5886 5886 5885 5885 5884 5884 5883 5883 5882 5881 5881 5880 5880 5880 5879 5879 5878 5878 5878 5877 5877 5876 5875 5875 5874 5873 5873 5872 5871 5871 5870
5880 5881 5882 5882 5883 5884 5884 5885 5885 5885 5885 5885 5884 5884 5883 5883 5882 5882 5881 5880 5879 5879 5878 5877 5877 5877 5877 5877 5876 5876 5875 5875 5874 5874 5873 5872 5872 5871 5870 5870 5869 5868 5867
5878 5879 5879 5880 5881 5881 5882 5882 5882 5882 5882 5882 5882 5882 5881 5881 5880 5879 5878 5878 5877 5876 5875 5875 5874 5874 5874 5874 5873 5873 5872 5872 5871 5871 5870 5870 5869 5868 5868 5867 5866 5865 5864
5875 5876 5877 5877 5878 5879 5879 5879 5879 5880 5880 5880 5879 5879 5879 5878 5877 5877 5876 5875 5874 5874 5873 5872 5872 5871 5871 5871 5870 5870 5869 5869 5868 5868 5867 5866 5866 5865 5864 5864 5863 5862 5861
5872 5873 5874 5874 5875 5876 5876 5877 5877 5877 5877 5877 5876 5876 5876 5875 5875 5874 5873 5873 5872 5871 5870 5870 5869 5869 5868 5868 5867 5866 5866 5865 5865 5864 5864 5863 5862 5862 5861 5860 5859 5859 5858
5869 5870 5871 5871 5872 5873 5873 5873 5874 5874 5874 5874 5873 5873 5873 5872 5871 5871 5870 5870 5869 5868 5867 5867 5866 5866 5865 5865 5864 5863 5863 5862 5861 5861 5860 5859 5859 5858 5858 5857 5856 5855 5854
5865 5866 5867 5868 5868 5869 5870 5870 5870 5870 5870 5870 5870 5869 5869 5868 5868 5868 5867 5866 5866 5865 5864 5864 5863 5863 5862 5861 5861 5860 5859 5859 5858 5857 5856 5856 5855 5855 5854 5853 5852 5851 5850
5861 5862 5863 5864 5865 5865 5866 5866 5866 5866 5866 5866 5866 5866 5865 5865 5865 5864 5864 5863 5862 5862 5861 5860 5860 5859 5858 5858 5857 5856 5856 5855 5854 5853 5853 5852 5851 5850 5850 5848 5847 5846 5845
5857 5858 5858 5859 5860 5861 5861 5862 5862 5862 5862 5862 5862 5862 5862 5861 5861 5860 5860 5859 5859 5858 5857 5857 5856 5856 5855 5854 5854 5853 5852 5851 5850 5849 5849 5848 5847 5846 5845 5844 5842 5841 5840
5852 5853 5854 5855 5855 5856 5857 5857 5857 5857 5857 5857 5857 5857 5857 5857 5857 5856 5856 5855 5855 5854 5854 5853 5852 5852 5851 5850 5850 5849 5848 5847 5846 5845 5844 5843 5842 5841 5840 5838 5837 5836 5834
5847 5848 5850 5850 5851 5851 5852 5852 5852 5853 5853 5853 5853 5853 5853 5853 5853 5852 5852 5851 5851 5850 5849 5849 5848 5847 5847 5846 5845 5844 5844 5843 5842 5841 5840 5838 5837 5836 5834 5833 5831 5830 5828
5843 5844 5845 5846 5846 5847 5847 5847 5848 5848 5848 5848 5848 5848 5848 5848 5848 5848 5847 5847 5846 5846 5845 5844 5843 5843 5842 5841 5841 5840 5839 5838 5837 5836 5835 5834 5833 5831 5829 5828 5826 5824 5823
5838 5839 5840 5841 5841 5842 5842 5842 5843 5843 5843 5843 5843 5843 5843 5843 5843 5843 5843 5842 5842 5841 5840 5840 5839 5838 5837 5837 5836 5835 5834 5833 5832 5831 5830 5829 5827 5826 5824 5822 5820 5819 5817
5832 5834 5835 5835 5836 5836 5837 5837 5837 5837 5837 5837 5838 5838 5838 5838 5838 5838 5838 5837 5837 5836 5835 5835 5834 5833 5832 5832 5831 5830 5829 5828 5827 5826 5825 5824 5822 5820 5818 5816 5814 5813 5811
5826 5828 5829 5830 5830 5831 5831 5832 5832 5832 5832 5832 5832 5832 5832 5832 5832 5832 5832 5832 5831 5831 5830 5829 5828 5828 5827 5826 5825 5825 5824 5823 5822 5821 5820 5818 5817 5815 5813 5811 5809 5807 5805
5821 5822 5823 5824 5824 5825 5826 5826 5826 5826 5826 5826 5826 5826 5826 5827 5826 5826 5826 5826 5825 5825 5824 5823 5822 5822 5821 5820 5820 5819 5818 5817 5816 5815 5814 5812 5811 5809 5807 5805 5803 5801 5799
5815 5816 5817 5818 5819 5820 5820 5820 5820 5820 5820 5820 5820 5820 5820 5820 5820 5820 5819 5819 5819 5818 5818 5817 5816 5815 5815 5814 5814 5813 5812 5811 5810 5809 5808 5806 5805 5803 5801 5799 5797 5796 5794
5809 5811 5812 5812 5813 5813 5813 5813 5813 5813 5813 5813 5813 5813 5813 5813 5813 5812 5812 5812 5811 5811 5811 5810 5810 5809 5808 5807 5807 5806 5805 5804 5804 5802 5801 5800 5798 5797 5795 5793 5791 5790 5788
5803 5805 5806 5806 5807 5807 5806 5806 5806 5806 5805 5805 5805 5805 5805 5805 5804 5804 5804 5804 5804 5803 5803 5803 5802 5801 5801 5800 5800 5799 5798 5798 5797 5796 5794 5793 5791 5790 5788 5787 5785 5783 5781
5796 5797 5798 5799 5799 5799 5799 5799 5798 5798 5797 5796 5796 5796 5795 5795 5795 5795 5795 5795 5795 5795 5794 5793 5793 5793 5793 5792 5792 5791 5791 5790 5789 5788 5787 5786 5784 5782 5781 5779 5778 5776 5774
5788 5789 5790 5790 5790 5790 5790 5790 5789 5789 5788 5787 5787 5786 5786 5786 5785 5785 5785 5785 5785 5785 5784 5784 5784 5784 5784 5784 5783 5782 5782 5783 5781 5780 5779 5778 5776 5774 5773 5771 5770 5768 5766
5779 5780 5780 5781 5781 5780 5780 5780 5780 5779 5779 5778 5777 5777 5776 5774 5774 5774 5774 5774 5774 5774 5774 5774 5774 5774 5774 5774 5774 5774 5774 5774 5772 5772 5770 5769 5767 5766 5764 5762 5761 5759 5757
5769 5770 5771 5770 5770 5770 5770 5769 5769 5769 5768 5768 5766 5765 5763 5762 5762 5762 5761 5761 5762 5762 5762 5763 5763 5763 5763 5763 5763 5763 5764 5763 5763 5762 5761 5759 5758 5756 5755 5753 5751 5749 5747
5760 5760 5760 5760 5760 5759 5758 5758 5757 5757 5756 5755 5754 5753 5751 5750 5749 5749 5748 5748 5748 5749 5750 5750 5751 5751 5751 5752 5752 5752 5752 5752 5752 5751 5750 5749 5747 5746 5744 5743 5741 5739 5736
5751 5751 5750 5750 5749 5748 5747 5746 5745 5744 5743 5742 5741 5739 5738 5737 5737 5736 5735 5734 5735 5735 5736 5737 5738 5738 5739 5739 5740 5741 5741 5741 5741 5740 5739 5738 5737 5735 5733 5732 5729 5727 5725